weather.gov     
National Weather Service

Terminal Aerodrome Forecast
NWS Homepage
This page is being discontinued on March 12, 2014.
The same data is available at this site. Please update your bookmarks.
Thank you, and we apologize for the inconvenience.
Please send an email to SR-SRH.Webmaster@noaa.gov with any concerns.


Current Version
Previous Version:    01  02  03  04  05  06  07  08  09  10  11  12  13  14  15  16  17  18  19  20  21  22  
[Printable]
148
FTUS42 KGSP 241700
TAFHKY
TAF
KHKY 241720Z 2418/2518 16005KT P6SM FEW250
     FM250700 15003KT P6SM BKN018
     FM251100 17005KT P6SM OVC006
     FM251300 19006KT P6SM OVC010 PROB30 2514/2516 4SM TSRA OVC008CB
     FM251700 21009KT P6SM BKN035=


U.S. Dept. of Commerce
NOAA National Weather Service
1325 East West Highway
Silver Spring, MD 20910
E-mail: w-nws.webmaster@noaa.gov
Page last modified: May 16, 2007
NATIONAL WEATHER SERVICE: for Safety, for Work, for Fun - FOR LIFE